Regional Weather Roundup
Issued by NWS

Home | Current Version | Previous Version | Graphics & Text | Print | Product List | Glossary On
Versions: 1 2 3 4 5 6 7 8 9 10 11 12 13 14 15 16 17 18 19 20 21 22 23 24 25 26 27 28 29 30 31 32 33 34 35 36 37 38 39 40 41 42 43 44 45 46 47 48 49 50
000
ASUS45 KBOU 280507
RWRCO

WEATHER ROUNDUP FOR COLORADO
NATIONAL WEATHER SERVICE DENVER/BOULDER CO
1100 PM MDT FRI MAR 27 2015

NOTE: "FAIR" INDICATES FEW OR NO CLOUDS BELOW 12000 FEET WITH NO
SIGNIFICANT WEATHER AND/OR OBSTRUCTIONS TO VISIBILITY.

COZ001>005-013-030-031-280600-
...NORTHWEST COLORADO...

CITY           SKY/WX    TMP DP  RH WIND       PRES   REMARKS
CRAIG          PTCLDY    42  30  62 SW3       30.21S
HAYDEN         CLOUDY    48  28  46 NE5       30.23R
MEEKER         CLEAR     42  29  59 E7        30.24S
MOUNT WERNER   NOT AVBL
STEAMBOAT SPGS CLOUDY    45  31  56 E6        30.24S
WALDEN         MOCLDY    36  28  75 E5        30.28R
$$

COZ006>008-011-280600-
...WEST CENTRAL VALLEYS...

CITY           SKY/WX    TMP DP  RH WIND       PRES   REMARKS
GRAND JUNCTION PTCLDY    46  25  43 E3        30.17S
MONTROSE       CLEAR     49  25  39 SE12      30.25S
EAGLE          PTCLDY    45  27  49 E5        30.29R
RIFLE          MOCLDY    49  26  41 SE5       30.21R
DELTA          CLEAR     51  28  40 NE5       30.21R
NUCLA          CLEAR     48  23  37 E10       30.28R
$$

COZ017>023-064>068-280600-
...SOUTHWEST COLORADO...

CITY           SKY/WX    TMP DP  RH WIND       PRES   REMARKS
DURANGO        CLEAR     49  24  37 N12       30.27R
CORTEZ         CLEAR     40  22  48 NE7       30.25S
PAGOSA SPRINGS CLEAR     44  22  40 CALM      30.31R
TELLURIDE      CLEAR     41  24  50 SE8       30.42R
WOLF CREEK PAS CLEAR     32  12  43 N7        30.53R WCI  26
$$

COZ009-010-012-014-032>034-037-058>063-280600-
...CENTRAL COLORADO...

CITY           SKY/WX    TMP DP  RH WIND       PRES   REMARKS
ASPEN          CLEAR     38  25  59 SW10      30.31R
BUENA VISTA    CLEAR     42  27  56 NW9       30.31S
COPPER MTN     PTCLDY    34  19  55 W18       30.46S WCI  23
BERTHOUD PASS  LGT SNOW  28  21  74 NW35G44   30.45R WCI  12
COTTONWOOD PAS CLEAR     43  18  36 W9G20     30.38S
GUNNISON       CLEAR     41  21  45 CALM      30.35R
KREMMLING      CLOUDY    39  28  65 CALM      30.29S
LEADVILLE      CLEAR     28  18  66 CALM      30.38S
SALIDA         CLEAR     45  20  36 SW10      30.37R
SUNLIGHT       CLEAR     37  23  56 CALM      30.47F
WILKERSON PASS PTCLDY    34  18  51 NW10G18   30.46S WCI  26
$$

COZ069>075-280600-
...SAN LUIS VALLEY/SANGRE DE CRISTO MOUNTAINS...

CITY           SKY/WX    TMP DP  RH WIND       PRES   REMARKS
ALAMOSA        CLEAR     45  16  31 NW9       30.28R
LA VETA PASS   CLEAR     39  21  48 W7        30.39S
SAGUACHE       CLEAR     45  21  39 NW15      30.31S
$$

COZ035-036-038>040-280600-
...NORTHERN COLORADO FRONT RANGE...

CITY           SKY/WX    TMP DP  RH WIND       PRES   REMARKS
DENVER INTL AP PTCLDY    55  31  39 W8        30.13F
DMNS CITY PARK   N/A     58  27  30 W6        30.13F
AURORA         PTCLDY    53  30  40 SW6       30.16S
FRONT RANGE AP NOT AVBL
ERIE MUNI ARPT MOCLDY    59  27  29 W7        30.12S
BOULDER MUN AP PTCLDY    59  28  31 SW9       30.13F
CENTENNIAL     MOCLDY    56  26  31 W12       30.16F
BROOMFIELD     NOT AVBL
FORT COLLINS   PTCLDY    55  28  35 N7        30.12F
LONGMONT       MOCLDY    59  31  34 SW8       30.13F
$$

COZ041-046-047-076>085-087-088-280600-
...PIKES PEAK/PALMER DIVIDE AND SOUTHERN FOOTHILLS...

CITY           SKY/WX    TMP DP  RH WIND       PRES   REMARKS
COLO. SPRINGS  PTCLDY    53  24  32 NW7       30.20S
A. F. ACADEMY  CLEAR     48  24  38 NE3       30.20S
ELLICOTT       CLEAR    N/A N/A N/A CALM      30.19S
FALCON         CLEAR     49  22  35 NW8       30.23S
FORT CARSON    CLEAR     53  28  39 N2        30.17S
LIMON          PTCLDY    50  31  48 W8        30.12F
MONUMENT HILL  PTCLDY    41  28  60 W7        30.21F
TRINIDAD       CLEAR     45  32  60 W14       30.17F
$$

COZ042>045-048>051-090-091-280600-
...NORTHEAST COLORADO...

CITY           SKY/WX    TMP DP  RH WIND       PRES   REMARKS
GREELEY ARPT   PTCLDY    48  23  37 W7        30.09S
AKRON          CLEAR     48  32  53 W10       30.06F
BURLINGTON     PTCLDY    45  33  63 W9        30.05F
WRAY           PTCLDY    47  32  56 SW9       30.03R
STERLING       CLEAR     46  32  57 CALM      30.03S
HOLYOKE        PTCLDY    46  32  57 W8        30.01F
FORT MORGAN    CLEAR    N/A N/A N/A W7        30.08S
$$

COZ086-089-092>099-280600-
...SOUTHEAST COLORADO...

CITY           SKY/WX    TMP DP  RH WIND       PRES   REMARKS
PUEBLO         CLEAR     47  33  58 CALM      30.13S
LA JUNTA       CLEAR     56  32  40 SW9       30.09S
LAMAR          CLEAR     51  34  52 SW8       30.04S
SPRINGFIELD      N/A     50  33  52 SW8       30.10S
$$



USA.gov is the U.S. government's official web portal to all federal, state and local government web resources and services.